Regional Weather Roundup
Issued by NWS Newport/Morehead, NC

Current Version | Previous Version | Text Only | Print | Product List | Glossary Off
Versions: 1 2 3 4 5 6 7 8 9 10 11 12 13 14 15 16 17 18 19 20 21 22 23 24 25 26 27 28 29 30 31 32 33 34 35 36 37 38 39 40 41 42 43 44 45 46 47 48 49 50
000 ASUS42 KMHX 290513 RWRMHX WEATHER ROUNDUP FOR EASTERN NORTH CAROLINA NATIONAL WEATHER SERVICE NEWPORT/MOREHEAD CITY NC 100 AM EDT FRI APR 29 2016 NOTE: "FAIR" INDICATES FEW OR NO CLOUDS BELOW 12,000 FEET WITH NO SIGNIFICANT WEATHER AND/OR OBSTRUCTIONS TO VISIBILITY NCZ015>017-031-032-045>047-102-103-290600- NORTH COAST CITY SKY/WX TMP DP RH WIND PRES REMARKS EDENTON CLOUDY 61 61 100 N7 29.92R FOG ELIZABETH CITY CLOUDY 57 57 100 N9 29.92F KITTY HAWK LGT RAIN 58 58 100 N7 29.90F VSB 1/2 MANTEO NOT AVBL $$ NCZ045>047-081-094-103-104-290600- CENTRAL COAST CITY SKY/WX TMP DP RH WIND PRES REMARKS FRISCO LGT RAIN 70 69 97 W9 29.92R SWANQUARTER NOT AVBL $$ NCZ095-097-098-100-101-290600- SOUTHERN COAST CITY SKY/WX TMP DP RH WIND PRES REMARKS BEAUFORT CLOUDY 69 68 96 SW12 29.90F CEDAR ISLAND NOT AVBL JACKSONVILLE CLOUDY 70 63 78 N8 29.90S PINEY ISLAND NOT AVBL WILMINGTON CLEAR 71 65 81 SW9 29.88F $$ NCZ011>013-027>030-043-044-078>080-089-090>093-098-290600- COASTAL PLAIN CITY SKY/WX TMP DP RH WIND PRES REMARKS AHOSKIE LGT RAIN 57 56 96 N10G18 29.93F CLINTON CLOUDY 68 67 98 CALM 29.88S ELIZABETHTOWN CLEAR 68 65 89 S3 29.89S GOLDSBORO NOT AVBL GREENVILLE PTCLDY 64 64 100 CALM 29.91F HAVELOCK TSTM 70 65 84 VRB3 29.91S KENANSVILLE CLOUDY 69 65 88 CALM 29.88F KINSTON PTCLDY 67 66 97 CALM 29.89S NEW BERN TSTM 68 64 87 N7 29.92F RICHLANDS CLOUDY 69 64 84 SE6 29.89F ROCKY MOUNT CLOUDY 65 65 100 NE3 29.90S WASHINGTON CLOUDY 67 65 93 S7 29.89S WHITEVILLE CLEAR 69 65 88 S9 29.88F $$ AMZ130-135-150-152-154-156-158-170-250-252-270-ANZ085-086-088-633-658-670-290600- MARINE OBSERVATIONS STATION/POSITION TIME TEMP WIND PRES WAVE SWELL AIR SEA DIR/SP/G HT/PER HT/PER (UTC) (F) (DEG/KT/KT) (MB) (FT/S) (FT/S) CHESAPEAKE LIGHT 0400 54 20/ 21/ 23 1013.9 64 E VA BEACH 0450 56 54 330/ 14/ 25 1012.8 3/ 7 2/ 7 DUCK 0400 58 67 350/ 15/ 17 1012.8 2 E DUCK 0341 58 N/A 3/ 4 OREGON INLET 0400 60 70 350/ 5/ 9 1012.6 13E OREGON INLT 0430 60 N/A 4/ 6 3/ 6 HATTERAS CG 0400 71 70 210/ 13/ 18 1012.3 DIAMOND BUOY 0450 73 71 220/ 17/ 19 1012.2 4/ 6 2/11 CAPE LOOKOUT 0500 70 210/ 8/ 10 1012.2 BEAUFORT LAB 0400 70 68 220/ 6/ 12 1012.0 30 SE NEW RVR IN 0425 67 N/A 4/ 6 27 SE WRIGHTSVLE 0408 71 69 220/ 10/ 14 1016.2 5 SE WRIGHTSVLE 0408 70 67 220/ 10/ 14 1013.6 225 S CAPE HAT 0450 71 71 180/ 12/ 14 1015.8 2/ 9 2/ 9 41 SE CHARLESTON 0450 74 70 210/ 14/ 16 1013.3 3/ 5 2/ 9 $$

USA.gov is the U.S. government's official web portal to all federal, state and local government web resources and services.